ALSAT-2A

operational
NORAD ID: 36798 Int'l Des: 2010-035 Owner: ASAL Country: DZ
LEOCIRCULARRETROGRADESSO

Über ALSAT-2A

Beschreibung wird geladen...

Live-Position

3D-Globus wird geladen...

Nächste Überflüge

Höhenverlauf

Altitude vs Time

uPlot chart will show altitude changes over time

Zweizeiliger Elementsatz

1 36798U 10035D 26063.50327006 .00001131 00000-0 17800-3 0 9997
2 36798 97.7643 70.4094 0001318 102.3505 257.7852 14.74305402838335
Epoch: 4. März 2026 • Age: 19 hours

Aktueller Status

Höhe 655.7 km
Geschwindigkeit 7.54 km/s
Subsatellitenpunkt 54.22°N, 25.33°W
Startdatum 12. Juli 2010
Alter 15.6 years
Typ other

Technische Details

Klassifizierung Payload
Masse 116.00 kg
Trockenmasse 111.00 kg
Gesamtmasse 116.00 kg
Länge 1.00 m
Durchmesser 0.60 m
Spannweite 1.80 m
Form Box + Pan
Hersteller ASTT
Bus-Typ Myriade
Phasenstatus In Orbit
Besitzer/Staat ASAL/DZ

Große Konstellationen

Loading constellations...